BAW245X EGLL-LROP

Flight info

Callsign BAW245X
Flight time 2h 35m
Altitude 39000
Route DET1J DET L6 DVR UL9 KONAN UL607 REMBA DCT LIRSU DCT ULNOK L607 MOMUK DCT GEDSO DCT PODET DCT ZINPE DCT MAVIT DCT LAMIT DCT TOSVI TOSVI2U
Aircraft A35K/H-SDE2E3GHIJ3J4J5LM1ORWXY/LB1D1

Departure

Time 2026-05-06 16:06
Airport London Heathrow Airport (EGLL)

Arrival

Time 2026-05-06 18:41
Airport Bucharest Henri Coandă International Airport (LROP)
Time Latitude Longitude Altitude Speed Heading
2026-05-06 14:39 51.47054 -0.47509 93 ft 0 kts 270°
2026-05-06 15:52 51.47055 -0.47488 95 ft 4 kts 270°
2026-05-06 15:52 51.47055 -0.47445 93 ft 4 kts 270°
2026-05-06 15:52 51.47055 -0.47407 93 ft 3 kts 269°
2026-05-06 15:52 51.47057 -0.47370 93 ft 4 kts 243°
2026-05-06 15:53 51.47066 -0.47348 95 ft 4 kts 201°
2026-05-06 15:53 51.47085 -0.47344 95 ft 4 kts 169°
2026-05-06 15:53 51.47111 -0.47353 93 ft 4 kts 171°
2026-05-06 15:53 51.47125 -0.47356 93 ft 4 kts 178°
2026-05-06 15:58 51.47122 -0.47356 93 ft 1 kts 178°
2026-05-06 15:58 51.47059 -0.47354 96 ft 15 kts 179°
2026-05-06 15:58 51.46946 -0.47353 96 ft 18 kts 180°
2026-05-06 15:58 51.46821 -0.47352 93 ft 11 kts 180°
2026-05-06 15:59 51.46757 -0.47367 97 ft 6 kts 218°
2026-05-06 15:59 51.46748 -0.47419 96 ft 7 kts 262°
2026-05-06 15:59 51.46745 -0.47577 94 ft 16 kts 269°
2026-05-06 15:59 51.46744 -0.47774 93 ft 18 kts 270°
2026-05-06 16:00 51.46743 -0.47972 93 ft 19 kts 269°
2026-05-06 16:00 51.46743 -0.48072 93 ft 0 kts 270°
2026-05-06 16:01 51.46743 -0.48073 93 ft 1 kts 270°
2026-05-06 16:01 51.46743 -0.48134 94 ft 12 kts 270°
2026-05-06 16:02 51.46742 -0.48312 93 ft 18 kts 270°
2026-05-06 16:02 51.46742 -0.48522 93 ft 20 kts 270°
2026-05-06 16:02 51.46741 -0.48645 93 ft 9 kts 269°
2026-05-06 16:02 51.46721 -0.48730 96 ft 8 kts 217°
2026-05-06 16:03 51.46659 -0.48748 93 ft 11 kts 187°
2026-05-06 16:03 51.46618 -0.48764 96 ft 0 kts 196°
2026-05-06 16:03 51.46612 -0.48767 96 ft 2 kts 196°
2026-05-06 16:04 51.46584 -0.48778 95 ft 6 kts 193°
2026-05-06 16:04 51.46535 -0.48792 94 ft 8 kts 180°
2026-05-06 16:04 51.46487 -0.48743 98 ft 9 kts 122°
2026-05-06 16:04 51.46479 -0.48674 97 ft 0 kts 92°
2026-05-06 16:05 51.46479 -0.48659 95 ft 3 kts 92°
2026-05-06 16:05 51.46478 -0.48652 95 ft 0 kts 92°
2026-05-06 16:05 51.46478 -0.48555 94 ft 38 kts 90°
2026-05-06 16:05 51.46481 -0.47726 92 ft 109 kts 89°
2026-05-06 16:06 51.46487 -0.46173 105 ft 167 kts 87°
2026-05-06 16:06 51.46487 -0.44274 863 ft 164 kts 86°
2026-05-06 16:06 51.46396 -0.42489 1817 ft 160 kts 99°
2026-05-06 16:06 51.45951 -0.40801 2385 ft 169 kts 114°
2026-05-06 16:07 51.45413 -0.39113 2992 ft 171 kts 113°
2026-05-06 16:07 51.44864 -0.37350 3450 ft 186 kts 112°
2026-05-06 16:07 51.44322 -0.35315 3748 ft 211 kts 108°
2026-05-06 16:07 51.43788 -0.32959 4108 ft 238 kts 107°
2026-05-06 16:08 51.43219 -0.30360 4648 ft 255 kts 107°
2026-05-06 16:08 51.42753 -0.28005 5290 ft 262 kts 103°
2026-05-06 16:08 51.42324 -0.25123 5823 ft 268 kts 101°
2026-05-06 16:08 51.41925 -0.22193 5984 ft 269 kts 101°
2026-05-06 16:09 51.41526 -0.19255 5995 ft 270 kts 101°
2026-05-06 16:09 51.41126 -0.16311 5994 ft 271 kts 101°
2026-05-06 16:09 51.40728 -0.13367 5995 ft 271 kts 101°
2026-05-06 16:09 51.40324 -0.10426 5991 ft 271 kts 101°
2026-05-06 16:10 51.39916 -0.07485 6073 ft 270 kts 101°
2026-05-06 16:10 51.39507 -0.04540 6554 ft 272 kts 101°
2026-05-06 16:10 51.39093 -0.01559 7386 ft 275 kts 101°
2026-05-06 16:10 51.38673 0.01463 8296 ft 280 kts 101°
2026-05-06 16:11 51.38245 0.04538 9192 ft 287 kts 101°
2026-05-06 16:11 51.37804 0.07692 10093 ft 293 kts 101°
2026-05-06 16:11 51.37352 0.10958 10642 ft 312 kts 101°
2026-05-06 16:11 51.36862 0.14464 11058 ft 334 kts 101°
2026-05-06 16:12 51.36333 0.18210 11480 ft 354 kts 102°
2026-05-06 16:12 51.35782 0.22145 12002 ft 369 kts 102°
2026-05-06 16:12 51.35209 0.26197 12734 ft 378 kts 102°
2026-05-06 16:12 51.34621 0.30327 13539 ft 384 kts 102°
2026-05-06 16:13 51.34031 0.34458 14297 ft 389 kts 102°
2026-05-06 16:13 51.33424 0.38708 15033 ft 394 kts 102°
2026-05-06 16:13 51.32810 0.42994 15773 ft 398 kts 102°
2026-05-06 16:13 51.32189 0.47330 16535 ft 402 kts 103°
2026-05-06 16:14 51.31563 0.51727 17291 ft 407 kts 103°
2026-05-06 16:14 51.30923 0.56159 18091 ft 411 kts 103°
2026-05-06 16:14 51.30275 0.60627 18813 ft 415 kts 103°
2026-05-06 16:14 51.29563 0.65128 19518 ft 420 kts 105°
2026-05-06 16:15 51.28748 0.69622 20245 ft 424 kts 107°
2026-05-06 16:15 51.27883 0.74140 20968 ft 428 kts 108°
2026-05-06 16:15 51.27002 0.78693 21674 ft 432 kts 108°
2026-05-06 16:15 51.26117 0.83305 22373 ft 436 kts 107°
2026-05-06 16:16 51.25237 0.87960 23086 ft 440 kts 107°
2026-05-06 16:16 51.24357 0.92659 23725 ft 445 kts 107°
2026-05-06 16:16 51.23472 0.97418 24314 ft 449 kts 107°
2026-05-06 16:16 51.22584 1.02205 24931 ft 452 kts 107°
2026-05-06 16:17 51.21691 1.07013 25535 ft 455 kts 107°
2026-05-06 16:17 51.20787 1.11867 26149 ft 458 kts 108°
2026-05-06 16:17 51.19874 1.16745 26750 ft 461 kts 108°
2026-05-06 16:17 51.18952 1.21663 27341 ft 464 kts 108°
2026-05-06 16:18 51.18022 1.26608 27936 ft 467 kts 108°
2026-05-06 16:18 51.17087 1.31585 28500 ft 471 kts 108°
2026-05-06 16:18 51.16364 1.36695 29062 ft 475 kts 100°
2026-05-06 16:18 51.15973 1.41947 29614 ft 478 kts 97°
2026-05-06 16:19 51.15673 1.47233 30125 ft 482 kts 96°
2026-05-06 16:19 51.15413 1.52575 30538 ft 485 kts 95°
2026-05-06 16:19 51.15167 1.57949 30932 ft 488 kts 95°
2026-05-06 16:19 51.14920 1.63361 31329 ft 491 kts 95°
2026-05-06 16:20 51.14665 1.68801 31711 ft 494 kts 95°
2026-05-06 16:20 51.14400 1.74264 32122 ft 496 kts 96°
2026-05-06 16:20 51.14129 1.79735 32680 ft 494 kts 96°
2026-05-06 16:20 51.13854 1.85174 33229 ft 492 kts 96°
2026-05-06 16:21 51.13576 1.90603 33757 ft 491 kts 96°
2026-05-06 16:21 51.13298 1.95932 34204 ft 490 kts 96°
2026-05-06 16:21 51.13013 2.01348 34581 ft 490 kts 96°
2026-05-06 16:21 51.12730 2.06748 34916 ft 491 kts 96°
2026-05-06 16:22 51.12441 2.12164 35253 ft 491 kts 96°
2026-05-06 16:22 51.12148 2.17588 35565 ft 492 kts 96°
2026-05-06 16:22 51.11852 2.23017 35881 ft 493 kts 96°
2026-05-06 16:22 51.11554 2.28455 36191 ft 494 kts 96°
2026-05-06 16:23 51.11253 2.33905 36503 ft 494 kts 96°
2026-05-06 16:23 51.10950 2.39357 36789 ft 495 kts 96°
2026-05-06 16:23 51.10644 2.44806 37077 ft 496 kts 96°
2026-05-06 16:23 51.10334 2.50287 37365 ft 497 kts 96°
2026-05-06 16:24 51.10022 2.55750 37640 ft 497 kts 96°
2026-05-06 16:24 51.09700 2.61236 37921 ft 498 kts 97°
2026-05-06 16:24 51.09114 2.66650 38187 ft 497 kts 106°
2026-05-06 16:24 51.08256 2.71985 38466 ft 497 kts 107°
2026-05-06 16:25 51.07336 2.77276 38683 ft 497 kts 107°
2026-05-06 16:25 51.06382 2.82549 38874 ft 498 kts 108°
2026-05-06 16:25 51.04424 2.93147 39031 ft 499 kts 108°
2026-05-06 16:26 51.03444 2.98444 39267 ft 499 kts 108°
2026-05-06 16:26 51.02468 3.03725 39509 ft 498 kts 108°
2026-05-06 16:26 51.01495 3.08996 39715 ft 498 kts 108°
2026-05-06 16:26 51.00521 3.14271 39907 ft 498 kts 108°
2026-05-06 16:27 50.99548 3.19533 40097 ft 498 kts 108°
2026-05-06 16:27 50.98568 3.24814 40288 ft 498 kts 108°
2026-05-06 16:27 50.97591 3.30066 40479 ft 497 kts 108°
2026-05-06 16:27 50.96607 3.35339 40654 ft 497 kts 108°
2026-05-06 16:28 50.95637 3.40525 40825 ft 498 kts 108°
2026-05-06 16:28 50.94636 3.45858 40902 ft 499 kts 108°
2026-05-06 16:28 50.92649 3.56401 40902 ft 499 kts 108°
2026-05-06 16:29 50.90655 3.66936 40900 ft 498 kts 108°
2026-05-06 16:29 50.88658 3.77338 40898 ft 498 kts 109°
2026-05-06 16:30 50.86949 3.86124 40893 ft 498 kts 109°
2026-05-06 16:30 50.84577 3.98282 40888 ft 498 kts 109°
2026-05-06 16:31 50.82528 4.08741 40890 ft 497 kts 109°
2026-05-06 16:31 50.80471 4.19192 40887 ft 497 kts 109°
2026-05-06 16:32 50.78409 4.29616 40875 ft 497 kts 109°
2026-05-06 16:32 50.76336 4.40034 40879 ft 497 kts 109°
2026-05-06 16:33 50.74255 4.50438 40891 ft 497 kts 109°
2026-05-06 16:34 50.71134 4.66037 40882 ft 497 kts 109°
2026-05-06 16:34 50.69118 4.76464 40880 ft 497 kts 109°
2026-05-06 16:35 50.67103 4.86890 40880 ft 497 kts 109°
2026-05-06 16:35 50.64558 4.96963 40881 ft 494 kts 116°
2026-05-06 16:36 50.61654 5.06765 40881 ft 494 kts 117°
2026-05-06 16:36 50.58686 5.16523 40885 ft 494 kts 117°
2026-05-06 16:37 50.55719 5.26257 40886 ft 494 kts 117°
2026-05-06 16:37 50.52770 5.35936 40882 ft 494 kts 117°
2026-05-06 16:38 50.49800 5.45659 40881 ft 493 kts 117°
2026-05-06 16:38 50.46827 5.55358 40881 ft 493 kts 118°
2026-05-06 16:39 50.43841 5.65059 40882 ft 493 kts 118°
2026-05-06 16:39 50.40847 5.74744 40883 ft 493 kts 118°
2026-05-06 16:40 50.37848 5.84409 40874 ft 493 kts 118°
2026-05-06 16:40 50.34841 5.94061 40868 ft 493 kts 118°
2026-05-06 16:41 50.31823 6.03710 40866 ft 493 kts 118°
2026-05-06 16:41 50.28804 6.13325 40857 ft 493 kts 118°
2026-05-06 16:42 50.25774 6.22936 40840 ft 493 kts 118°
2026-05-06 16:42 50.22735 6.32543 40831 ft 493 kts 118°
2026-05-06 16:43 50.19703 6.42139 40819 ft 493 kts 117°
2026-05-06 16:43 50.17517 6.52321 40819 ft 496 kts 107°
2026-05-06 16:44 50.15781 6.62727 40819 ft 497 kts 106°
2026-05-06 16:44 50.14093 6.73191 40820 ft 497 kts 106°
2026-05-06 16:45 50.12386 6.83637 40826 ft 497 kts 107°
2026-05-06 16:45 50.10657 6.94055 40825 ft 497 kts 107°
2026-05-06 16:46 50.08910 7.04484 40825 ft 497 kts 107°
2026-05-06 16:46 50.07167 7.14825 40826 ft 497 kts 107°
2026-05-06 16:47 50.05402 7.25240 40827 ft 497 kts 107°
2026-05-06 16:47 50.03631 7.35631 40824 ft 497 kts 107°
2026-05-06 16:48 50.01850 7.46014 40828 ft 497 kts 107°
2026-05-06 16:48 50.00365 7.54623 40820 ft 497 kts 107°
2026-05-06 16:49 49.98554 7.65070 40814 ft 497 kts 108°
2026-05-06 16:49 49.96759 7.75363 40809 ft 497 kts 108°
2026-05-06 16:50 49.94942 7.85720 40805 ft 497 kts 108°
2026-05-06 16:50 49.93116 7.96068 40806 ft 496 kts 108°
2026-05-06 16:51 49.91285 8.06390 40808 ft 496 kts 108°
2026-05-06 16:51 49.89445 8.16706 40804 ft 496 kts 108°
2026-05-06 16:52 49.87595 8.27010 40803 ft 496 kts 108°
2026-05-06 16:52 49.85526 8.37190 40803 ft 493 kts 116°
2026-05-06 16:53 49.81918 8.46054 40802 ft 484 kts 135°
2026-05-06 16:53 49.77144 8.53376 40813 ft 483 kts 140°
2026-05-06 16:54 49.71782 8.59415 40783 ft 476 kts 155°
2026-05-06 16:54 49.65578 8.62717 40789 ft 470 kts 170°
2026-05-06 16:55 49.59145 8.64571 40781 ft 471 kts 172°
2026-05-06 16:55 49.52681 8.66267 40777 ft 471 kts 172°
2026-05-06 16:56 49.46274 8.68405 40779 ft 473 kts 163°
2026-05-06 16:56 49.40178 8.72239 40781 ft 475 kts 158°
2026-05-06 16:57 49.34195 8.76415 40791 ft 475 kts 158°
2026-05-06 16:57 49.28150 8.80666 40794 ft 475 kts 158°
2026-05-06 16:58 49.22180 8.84816 40813 ft 474 kts 158°
2026-05-06 16:58 49.16156 8.88973 40815 ft 474 kts 158°
2026-05-06 16:59 49.10145 8.93102 40820 ft 474 kts 158°
2026-05-06 16:59 49.04138 8.97219 40820 ft 474 kts 158°
2026-05-06 17:00 48.98130 9.01327 40823 ft 473 kts 158°
2026-05-06 17:00 48.92118 9.05428 40824 ft 473 kts 158°
2026-05-06 17:01 48.86101 9.09522 40830 ft 473 kts 158°
2026-05-06 17:01 48.80092 9.13599 40828 ft 473 kts 159°
2026-05-06 17:02 48.74083 9.17666 40828 ft 473 kts 159°
2026-05-06 17:02 48.68078 9.21719 40827 ft 472 kts 159°
2026-05-06 17:03 48.62075 9.25760 40829 ft 472 kts 159°
2026-05-06 17:03 48.55998 9.29499 40832 ft 471 kts 162°
2026-05-06 17:04 48.49817 9.32798 40837 ft 471 kts 163°
2026-05-06 17:04 48.43698 9.36087 40837 ft 471 kts 162°
2026-05-06 17:05 48.37541 9.39478 40842 ft 471 kts 162°
2026-05-06 17:05 48.31386 9.42897 40842 ft 472 kts 162°
2026-05-06 17:06 48.25401 9.46953 40841 ft 476 kts 151°
2026-05-06 17:06 48.20120 9.53019 40834 ft 479 kts 143°
2026-05-06 17:07 48.15070 9.59561 40836 ft 481 kts 142°
2026-05-06 17:07 48.10032 9.66149 40848 ft 481 kts 142°
2026-05-06 17:08 48.05396 9.72155 40828 ft 481 kts 142°
2026-05-06 17:08 48.00313 9.78688 40844 ft 482 kts 142°
2026-05-06 17:09 47.95229 9.85197 40853 ft 482 kts 142°
2026-05-06 17:09 47.90120 9.91721 40853 ft 482 kts 142°
2026-05-06 17:10 47.85120 9.98364 40855 ft 486 kts 136°
2026-05-06 17:10 47.81122 10.06525 40852 ft 491 kts 124°
2026-05-06 17:11 47.77642 10.15308 40855 ft 493 kts 123°
2026-05-06 17:11 47.74231 10.24134 40858 ft 493 kts 123°
2026-05-06 17:12 47.70788 10.32940 40855 ft 493 kts 123°
2026-05-06 17:12 47.67312 10.41726 40854 ft 493 kts 124°
2026-05-06 17:13 47.63841 10.50450 40847 ft 493 kts 124°
2026-05-06 17:13 47.60326 10.59257 40842 ft 493 kts 124°
2026-05-06 17:14 47.56850 10.67943 40841 ft 493 kts 124°
2026-05-06 17:14 47.53325 10.76726 40829 ft 493 kts 124°
2026-05-06 17:15 47.49835 10.85391 40823 ft 493 kts 124°
2026-05-06 17:15 47.46314 10.94104 40804 ft 494 kts 124°
2026-05-06 17:16 47.42787 11.02800 40794 ft 494 kts 124°
2026-05-06 17:16 47.39244 11.11511 40788 ft 495 kts 124°
2026-05-06 17:17 47.35699 11.20205 40774 ft 495 kts 124°
2026-05-06 17:17 47.32139 11.28901 40775 ft 495 kts 124°
2026-05-06 17:18 47.28572 11.37587 40775 ft 495 kts 124°
2026-05-06 17:18 47.25003 11.46253 40772 ft 495 kts 124°
2026-05-06 17:19 47.21422 11.54918 40783 ft 496 kts 124°
2026-05-06 17:19 47.17836 11.63571 40777 ft 496 kts 124°
2026-05-06 17:20 47.14236 11.72231 40781 ft 496 kts 125°
2026-05-06 17:20 47.10632 11.80871 40794 ft 497 kts 125°
2026-05-06 17:21 47.07476 11.89921 40798 ft 502 kts 112°
2026-05-06 17:21 47.05189 11.99608 40801 ft 503 kts 111°
2026-05-06 17:22 47.03032 12.09381 40822 ft 504 kts 111°
2026-05-06 17:22 47.00869 12.19153 40848 ft 504 kts 111°
2026-05-06 17:23 46.98677 12.28912 40856 ft 505 kts 111°
2026-05-06 17:23 46.96463 12.38677 40923 ft 506 kts 112°
2026-05-06 17:24 46.94241 12.48435 40865 ft 506 kts 112°
2026-05-06 17:24 46.92018 12.58143 40844 ft 506 kts 112°
2026-05-06 17:25 46.89760 12.67952 40841 ft 506 kts 112°
2026-05-06 17:25 46.87526 12.77630 40847 ft 506 kts 112°
2026-05-06 17:26 46.85271 12.87362 40850 ft 505 kts 112°
2026-05-06 17:26 46.83008 12.97070 40858 ft 505 kts 112°
2026-05-06 17:27 46.80733 13.06786 40858 ft 507 kts 112°
2026-05-06 17:27 46.78445 13.16515 40855 ft 507 kts 112°
2026-05-06 17:28 46.76146 13.26252 40865 ft 507 kts 112°
2026-05-06 17:28 46.73839 13.35978 40866 ft 508 kts 112°
2026-05-06 17:29 46.71525 13.45695 40860 ft 508 kts 112°
2026-05-06 17:29 46.69197 13.55427 40862 ft 508 kts 112°
2026-05-06 17:30 46.66863 13.65142 40866 ft 509 kts 112°
2026-05-06 17:30 46.64515 13.74867 40862 ft 508 kts 113°
2026-05-06 17:31 46.62173 13.84531 40862 ft 508 kts 113°
2026-05-06 17:31 46.59841 13.94104 40857 ft 507 kts 113°
2026-05-06 17:32 46.57479 14.03759 40860 ft 507 kts 113°
2026-05-06 17:32 46.55108 14.13413 40859 ft 507 kts 113°
2026-05-06 17:33 46.53131 14.21433 40856 ft 507 kts 113°
2026-05-06 17:33 46.50343 14.32692 40860 ft 508 kts 113°
2026-05-06 17:34 46.48349 14.40708 40863 ft 508 kts 113°
2026-05-06 17:34 46.45945 14.50338 40872 ft 507 kts 113°
2026-05-06 17:35 46.43533 14.59954 40903 ft 507 kts 113°
2026-05-06 17:35 46.41116 14.69554 40901 ft 508 kts 113°
2026-05-06 17:36 46.37473 14.83952 40900 ft 507 kts 114°
2026-05-06 17:36 46.35033 14.93542 40899 ft 508 kts 113°
2026-05-06 17:37 46.32585 15.03121 40897 ft 507 kts 113°
2026-05-06 17:37 46.30129 15.12698 40899 ft 507 kts 113°
2026-05-06 17:38 46.27667 15.22256 40900 ft 507 kts 113°
2026-05-06 17:38 46.25216 15.31733 40899 ft 507 kts 113°
2026-05-06 17:39 46.22721 15.41337 40893 ft 507 kts 114°
2026-05-06 17:39 46.20254 15.50795 40906 ft 507 kts 114°
2026-05-06 17:40 46.17763 15.60308 40916 ft 507 kts 114°
2026-05-06 17:40 46.15227 15.69873 40892 ft 507 kts 114°
2026-05-06 17:41 46.12669 15.79255 40905 ft 507 kts 114°
2026-05-06 17:41 46.10079 15.88707 40903 ft 506 kts 114°
2026-05-06 17:42 46.07497 15.98131 40901 ft 506 kts 114°
2026-05-06 17:42 46.04904 16.07573 40902 ft 506 kts 114°
2026-05-06 17:43 46.02311 16.16983 40904 ft 506 kts 114°
2026-05-06 17:43 45.99714 16.26371 40904 ft 506 kts 114°
2026-05-06 17:44 45.97101 16.35778 40906 ft 506 kts 114°
2026-05-06 17:44 45.94484 16.45164 40910 ft 506 kts 115°
2026-05-06 17:45 45.91857 16.54549 40901 ft 506 kts 115°
2026-05-06 17:45 45.89225 16.63915 40905 ft 506 kts 115°
2026-05-06 17:46 45.86578 16.73295 40909 ft 507 kts 115°
2026-05-06 17:46 45.83926 16.82660 40909 ft 507 kts 115°
2026-05-06 17:47 45.81265 16.92020 40906 ft 507 kts 115°
2026-05-06 17:47 45.78595 17.01376 40910 ft 507 kts 115°
2026-05-06 17:48 45.75926 17.10724 40910 ft 508 kts 114°
2026-05-06 17:48 45.74171 17.20547 40913 ft 511 kts 102°
2026-05-06 17:49 45.73066 17.30612 40915 ft 512 kts 100°
2026-05-06 17:49 45.72048 17.40698 40919 ft 512 kts 100°
2026-05-06 17:50 45.71015 17.50721 40916 ft 512 kts 100°
2026-05-06 17:50 45.69947 17.60798 40915 ft 512 kts 101°
2026-05-06 17:51 45.68865 17.70850 40915 ft 511 kts 101°
2026-05-06 17:51 45.67780 17.80839 40913 ft 511 kts 101°
2026-05-06 17:52 45.66681 17.90890 40915 ft 511 kts 101°
2026-05-06 17:52 45.65576 18.00905 40905 ft 511 kts 101°
2026-05-06 17:53 45.64461 18.10933 40909 ft 510 kts 101°
2026-05-06 17:53 45.63330 18.21021 40905 ft 510 kts 101°
2026-05-06 17:54 45.62205 18.30965 40911 ft 510 kts 101°
2026-05-06 17:54 45.61067 18.40951 40908 ft 510 kts 101°
2026-05-06 17:55 45.59920 18.50938 40881 ft 509 kts 101°
2026-05-06 17:55 45.58765 18.60913 40893 ft 509 kts 101°
2026-05-06 17:56 45.57602 18.70877 40887 ft 509 kts 101°
2026-05-06 17:56 45.56430 18.80838 40884 ft 508 kts 101°
2026-05-06 17:57 45.55252 18.90781 40886 ft 508 kts 102°
2026-05-06 17:57 45.54065 19.00716 40886 ft 508 kts 102°
2026-05-06 17:58 45.52870 19.10640 40892 ft 507 kts 102°
2026-05-06 17:58 45.51668 19.20551 40897 ft 507 kts 102°
2026-05-06 17:59 45.50458 19.30449 40898 ft 507 kts 102°
2026-05-06 17:59 45.49241 19.40333 40904 ft 506 kts 102°
2026-05-06 18:00 45.48016 19.50206 40903 ft 506 kts 102°
2026-05-06 18:00 45.46781 19.60086 40906 ft 506 kts 102°
2026-05-06 18:01 45.45549 19.69877 40905 ft 506 kts 102°
2026-05-06 18:01 45.44299 19.79734 40907 ft 506 kts 102°
2026-05-06 18:02 45.43040 19.89588 40907 ft 506 kts 102°
2026-05-06 18:02 45.41774 19.99434 40908 ft 506 kts 102°
2026-05-06 18:03 45.40498 20.09283 40908 ft 506 kts 102°
2026-05-06 18:03 45.39216 20.19109 40905 ft 506 kts 102°
2026-05-06 18:04 45.37922 20.28960 40905 ft 506 kts 102°
2026-05-06 18:04 45.36619 20.38805 40908 ft 506 kts 102°
2026-05-06 18:05 45.35309 20.48638 40912 ft 506 kts 102°
2026-05-06 18:05 45.34178 20.57074 40910 ft 506 kts 102°
2026-05-06 18:06 45.32852 20.66897 40910 ft 506 kts 102°
2026-05-06 18:06 45.31517 20.76727 40912 ft 506 kts 102°
2026-05-06 18:07 45.30174 20.86543 40918 ft 506 kts 102°
2026-05-06 18:07 45.28823 20.96358 40916 ft 506 kts 102°
2026-05-06 18:08 45.27464 21.06163 40915 ft 506 kts 102°
2026-05-06 18:08 45.26094 21.15977 40914 ft 507 kts 102°
2026-05-06 18:09 45.24716 21.25787 40912 ft 507 kts 102°
2026-05-06 18:09 45.23733 21.35687 40911 ft 507 kts 96°
2026-05-06 18:10 45.23121 21.45655 40916 ft 507 kts 95°
2026-05-06 18:10 45.22556 21.55626 40922 ft 508 kts 95°
2026-05-06 18:11 45.22076 21.63923 40928 ft 508 kts 95°
2026-05-06 18:11 45.21379 21.75602 40945 ft 508 kts 95°
2026-05-06 18:12 45.20774 21.85496 40957 ft 508 kts 95°
2026-05-06 18:12 45.20154 21.95487 40965 ft 508 kts 95°
2026-05-06 18:13 45.19526 22.05466 40969 ft 508 kts 95°
2026-05-06 18:13 45.18890 22.15453 40975 ft 509 kts 95°
2026-05-06 18:14 45.18244 22.25433 40985 ft 509 kts 95°
2026-05-06 18:14 45.17590 22.35410 40990 ft 509 kts 95°
2026-05-06 18:15 45.16926 22.45410 40990 ft 509 kts 95°
2026-05-06 18:15 45.16252 22.55414 40994 ft 510 kts 95°
2026-05-06 18:16 45.15570 22.65409 40999 ft 510 kts 95°
2026-05-06 18:16 45.14880 22.75411 40995 ft 510 kts 95°
2026-05-06 18:17 45.14186 22.85334 40998 ft 510 kts 95°
2026-05-06 18:17 45.13476 22.95338 40978 ft 510 kts 95°
2026-05-06 18:18 45.13120 23.00327 40734 ft 510 kts 95°
2026-05-06 18:18 45.12760 23.05336 40487 ft 510 kts 95°
2026-05-06 18:18 45.12398 23.10331 40244 ft 511 kts 95°
2026-05-06 18:18 45.12033 23.15340 39994 ft 511 kts 95°
2026-05-06 18:19 45.11666 23.20347 39765 ft 511 kts 95°
2026-05-06 18:19 45.11296 23.25347 39485 ft 509 kts 95°
2026-05-06 18:19 45.11047 23.28704 39190 ft 507 kts 95°
2026-05-06 18:19 45.10548 23.35275 38375 ft 508 kts 95°
2026-05-06 18:20 45.09824 23.40171 37762 ft 508 kts 103°
2026-05-06 18:20 45.08945 23.45013 37119 ft 508 kts 103°
2026-05-06 18:20 45.08049 23.49850 36479 ft 508 kts 103°
2026-05-06 18:20 45.07453 23.53045 36030 ft 508 kts 103°
2026-05-06 18:21 45.06239 23.59508 35139 ft 509 kts 103°
2026-05-06 18:21 45.05634 23.62710 34680 ft 510 kts 103°
2026-05-06 18:21 45.04714 23.67569 33885 ft 513 kts 103°
2026-05-06 18:21 45.03785 23.72463 33025 ft 515 kts 103°
2026-05-06 18:22 45.02853 23.77352 32198 ft 516 kts 103°
2026-05-06 18:22 45.01916 23.82259 31360 ft 517 kts 104°
2026-05-06 18:22 45.00975 23.87173 30511 ft 519 kts 104°
2026-05-06 18:22 45.00031 23.92083 29587 ft 520 kts 104°
2026-05-06 18:23 44.99083 23.97003 28897 ft 515 kts 104°
2026-05-06 18:23 44.98142 24.01872 28250 ft 510 kts 104°
2026-05-06 18:23 44.97211 24.06680 27603 ft 505 kts 104°
2026-05-06 18:23 44.96288 24.11436 26972 ft 500 kts 104°
2026-05-06 18:24 44.95370 24.16151 26364 ft 496 kts 104°
2026-05-06 18:24 44.94459 24.20823 25742 ft 492 kts 104°
2026-05-06 18:24 44.93552 24.25463 25126 ft 488 kts 104°
2026-05-06 18:24 44.92653 24.30054 24506 ft 484 kts 105°
2026-05-06 18:25 44.91759 24.34605 23903 ft 480 kts 105°
2026-05-06 18:25 44.90870 24.39121 23236 ft 476 kts 105°
2026-05-06 18:25 44.89989 24.43585 22617 ft 470 kts 105°
2026-05-06 18:25 44.89118 24.47986 21999 ft 464 kts 105°
2026-05-06 18:26 44.88255 24.52340 21395 ft 457 kts 105°
2026-05-06 18:26 44.87403 24.56630 20797 ft 452 kts 105°
2026-05-06 18:26 44.86559 24.60868 20196 ft 446 kts 105°
2026-05-06 18:26 44.85735 24.64999 19595 ft 441 kts 105°
2026-05-06 18:27 44.84896 24.69194 18976 ft 437 kts 105°
2026-05-06 18:27 44.84073 24.73304 18367 ft 433 kts 106°
2026-05-06 18:27 44.83268 24.77316 17700 ft 429 kts 106°
2026-05-06 18:27 44.82460 24.81330 17076 ft 424 kts 106°
2026-05-06 18:28 44.81658 24.85305 16441 ft 419 kts 106°
2026-05-06 18:28 44.80866 24.89225 15810 ft 414 kts 106°
2026-05-06 18:28 44.80087 24.93072 15555 ft 401 kts 106°
2026-05-06 18:28 44.79336 24.96777 15423 ft 385 kts 106°
2026-05-06 18:29 44.78615 25.00324 15289 ft 370 kts 106°
2026-05-06 18:29 44.77918 25.03747 15168 ft 356 kts 106°
2026-05-06 18:29 44.77247 25.07038 15028 ft 344 kts 106°
2026-05-06 18:29 44.76596 25.10230 14715 ft 338 kts 106°
2026-05-06 18:30 44.75947 25.13403 14279 ft 336 kts 106°
2026-05-06 18:30 44.75299 25.16549 13932 ft 332 kts 107°
2026-05-06 18:30 44.74520 25.19545 13760 ft 321 kts 112°
2026-05-06 18:30 44.73690 25.22436 13400 ft 317 kts 112°
2026-05-06 18:31 44.72854 25.25292 13005 ft 314 kts 112°
2026-05-06 18:31 44.72018 25.28108 12559 ft 308 kts 112°
2026-05-06 18:31 44.71194 25.30865 11732 ft 305 kts 113°
2026-05-06 18:31 44.70371 25.33604 10885 ft 304 kts 113°
2026-05-06 18:32 44.69550 25.36329 10115 ft 301 kts 113°
2026-05-06 18:32 44.68739 25.39016 9294 ft 297 kts 113°
2026-05-06 18:32 44.67933 25.41682 8458 ft 294 kts 113°
2026-05-06 18:32 44.67136 25.44315 7688 ft 291 kts 113°
2026-05-06 18:33 44.66358 25.46883 7263 ft 282 kts 113°
2026-05-06 18:33 44.65586 25.49428 6987 ft 283 kts 113°
2026-05-06 18:33 44.64816 25.51962 6676 ft 282 kts 113°
2026-05-06 18:33 44.64047 25.54494 6369 ft 281 kts 113°
2026-05-06 18:34 44.63280 25.57012 6025 ft 280 kts 113°
2026-05-06 18:34 44.62517 25.59516 5704 ft 278 kts 113°
2026-05-06 18:34 44.61757 25.62009 5450 ft 278 kts 113°
2026-05-06 18:34 44.61008 25.64464 5151 ft 276 kts 113°
2026-05-06 18:35 44.60270 25.66877 4804 ft 273 kts 113°
2026-05-06 18:35 44.59526 25.69312 4483 ft 270 kts 113°
2026-05-06 18:35 44.58790 25.71719 4179 ft 268 kts 113°
2026-05-06 18:35 44.58060 25.74108 3954 ft 261 kts 114°
2026-05-06 18:36 44.57373 25.76348 3860 ft 237 kts 114°
2026-05-06 18:36 44.56754 25.78369 3768 ft 214 kts 114°
2026-05-06 18:36 44.56183 25.80249 3692 ft 207 kts 113°
2026-05-06 18:36 44.55787 25.82182 3599 ft 206 kts 99°
2026-05-06 18:37 44.55791 25.84187 3532 ft 206 kts 84°
2026-05-06 18:37 44.55973 25.86127 3433 ft 196 kts 84°
2026-05-06 18:37 44.56123 25.87993 3204 ft 191 kts 86°
2026-05-06 18:37 44.56253 25.89829 2930 ft 188 kts 86°
2026-05-06 18:38 44.56390 25.91621 2671 ft 181 kts 86°
2026-05-06 18:38 44.56521 25.93322 2431 ft 170 kts 86°
2026-05-06 18:38 44.56641 25.94918 2206 ft 158 kts 87°
2026-05-06 18:38 44.56754 25.96393 2005 ft 147 kts 88°
2026-05-06 18:39 44.56858 25.97767 1812 ft 136 kts 88°
2026-05-06 18:39 44.56955 25.99064 1643 ft 133 kts 88°
2026-05-06 18:39 44.57051 26.00357 1458 ft 134 kts 88°
2026-05-06 18:40 44.57246 26.02940 1117 ft 133 kts 87°
2026-05-06 18:40 44.57331 26.04233 933 ft 133 kts 86°
2026-05-06 18:40 44.57423 26.05520 740 ft 133 kts 84°
2026-05-06 18:40 44.57526 26.06796 570 ft 132 kts 84°
2026-05-06 18:41 44.57633 26.08069 402 ft 131 kts 84°
2026-05-06 18:41 44.57726 26.09305 321 ft 115 kts 83°
2026-05-06 18:41 44.57795 26.10166 328 ft 63 kts 83°
2026-05-06 18:41 44.57827 26.10600 323 ft 38 kts 85°
2026-05-06 18:42 44.57813 26.10945 321 ft 34 kts 106°
2026-05-06 18:42 44.57770 26.11105 322 ft 8 kts 112°
2026-05-06 18:42 44.57735 26.11166 325 ft 8 kts 158°
2026-05-06 18:42 44.57705 26.11141 322 ft 5 kts 242°
2026-05-06 18:43 44.57702 26.11128 322 ft 0 kts 251°
2026-05-06 18:44 44.57697 26.11106 324 ft 5 kts 255°
2026-05-06 18:44 44.57689 26.11037 324 ft 9 kts 262°
2026-05-06 18:44 44.57679 26.10935 326 ft 12 kts 264°
2026-05-06 18:44 44.57670 26.10801 326 ft 15 kts 264°
2026-05-06 18:45 44.57657 26.10636 326 ft 18 kts 263°
2026-05-06 18:45 44.57643 26.10446 326 ft 21 kts 264°
2026-05-06 18:45 44.57626 26.10229 323 ft 24 kts 264°
2026-05-06 18:45 44.57608 26.09986 327 ft 26 kts 264°
2026-05-06 18:46 44.57588 26.09719 324 ft 29 kts 264°
2026-05-06 18:46 44.57565 26.09428 323 ft 31 kts 264°
2026-05-06 18:46 44.57543 26.09120 325 ft 26 kts 264°
2026-05-06 18:46 44.57527 26.08910 326 ft 23 kts 264°
2026-05-06 18:47 44.57510 26.08681 323 ft 20 kts 264°
2026-05-06 18:47 44.57503 26.08593 326 ft 14 kts 264°
2026-05-06 18:47 44.57472 26.08485 323 ft 12 kts 208°
2026-05-06 18:47 44.57380 26.08481 323 ft 14 kts 172°
2026-05-06 18:48 44.57276 26.08498 322 ft 11 kts 174°
2026-05-06 18:48 44.57241 26.08475 322 ft 5 kts 239°
2026-05-06 18:48 44.57232 26.08417 325 ft 8 kts 263°
2026-05-06 18:48 44.57217 26.08345 323 ft 8 kts 233°
2026-05-06 18:49 44.57175 26.08289 323 ft 8 kts 219°
2026-05-06 18:49 44.57153 26.08265 323 ft 2 kts 219°
2026-05-06 18:49 44.57141 26.08251 323 ft 3 kts 219°
2026-05-06 18:49 44.57136 26.08245 322 ft 0 kts 219°